User: anonymous   Login
Location: Bullenkuhlen
(53.7689°N, 9.7495°E)
Time: 11:16:27
(UTC+00:00)
Language:

Cosmos 1315 Rocket - Orbit

View from above orbital plane
View from above orbital plane
View from above satellite
View from above satellite

Ground track
Ground track

The orbit data is extracted from the following two-line orbital elements,

1 12904U 81103B   20185.18689618  .00000176  00000-0  10402-4 0  9997
2 12904  81.1770  85.0004 0028621   7.5056 352.6589 15.05806059660145
Epoch (UTC): 03 July 2020 04:29:07
Eccentricity: 0.0028621
inclination: 81.1770°
perigee height: 529 km
apogee height: 569 km
right ascension of ascending node: 85.0004°
argument of perigee: 7.5056°
revolutions per day: 15.05806059
mean anomaly at epoch: 352.6589°
orbit number at epoch: 66014

The dashed part of the orbit path shows where the satellite is in the earth's shadow,  

DLR